This is the latest recevied weather packets stored in our database for station/object KA7GOO. If no packets are shown the sender has not sent any weather packets the latest 10 day(s).
| Time | Temp. | Humidity | Pressure | Rain* | Wind** | Luminosity | Snow |
|---|---|---|---|---|---|---|---|
| 1777599914 | 27.22° C | 30% | 1001.5 hPa | 0 mm | - | - | - |
| 1777599086 | 28.33° C | 30% | 1001.5 hPa | 0 mm | - | - | - |
| 1777598123 | 28.33° C | 30% | 1001.6 hPa | 0 mm | - | - | - |
| 1777597288 | 28.33° C | 30% | 1001.6 hPa | 0 mm | - | - | - |
| 1777596367 | 28.33° C | 30% | 1001.6 hPa | 0 mm | - | - | - |
| 1777595480 | 28.33° C | 30% | 1001.7 hPa | 0 mm | - | - | - |
| 1777594506 | 28.33° C | 31% | 1001.9 hPa | 0 mm | - | - | - |
| 1777593676 | 28.33° C | 30% | 1001.9 hPa | 0 mm | - | - | - |
| 1777592785 | 28.33° C | 30% | 1002 hPa | 0 mm | - | - | - |
| 1777591857 | 28.33° C | 31% | 1002.1 hPa | 0 mm | - | - | - |
| 1777590985 | 28.33° C | 31% | 1002.1 hPa | 0 mm | - | - | - |
| 1777590067 | 28.33° C | 31% | 1002.4 hPa | 0 mm | - | - | - |
| 1777589180 | 28.33° C | 31% | 1002.7 hPa | 0 mm | - | - | - |
| 1777588303 | 28.33° C | 31% | 1003.1 hPa | 0 mm | - | - | - |
| 1777587318 | 27.78° C | 31% | 1003.6 hPa | 0 mm | - | - | - |
| 1777586486 | 28.33° C | 30% | 1003.6 hPa | 0 mm | - | - | - |
| 1777585590 | 28.33° C | 31% | 1004 hPa | 0 mm | - | - | - |
| 1777584668 | 28.33° C | 31% | 1004 hPa | 0 mm | - | - | - |
| 1777583785 | 27.78° C | 31% | 1004.3 hPa | 0 mm | - | - | - |
| 1777582894 | 27.78° C | 31% | 1004.6 hPa | 0 mm | - | - | - |
| 1777581910 | 27.22° C | 31% | 1005 hPa | 0 mm | - | - | - |
| 1777581012 | 27.78° C | 31% | 1005.2 hPa | 0 mm | - | - | - |
| 1777580179 | 27.22° C | 31% | 1005.2 hPa | 0 mm | - | - | - |
| 1777579215 | 27.22° C | 31% | 1005.7 hPa | 0 mm | - | - | - |
| 1777578304 | 27.22° C | 31% | 1005.8 hPa | 0 mm | - | - | - |
* Rain latest hour (hover to see other rain measurements)
** Current wind speed in m/s (hover to see current wind gust speed)